Lapse_Rate
6.5 6.4 6.3 6.3 6.2 6.1 5.9 5.8 5.8 5.9 5.8 5.6 5.4 5.5 5.5 5.5 5.4 5.4 5.4 5.4 5.4 5.4 5.5 5.5 5.5 5.6 5.6 5.7 5.8 6.0 6.3 6.0
6.6 6.5 6.4 6.2 6.2 6.2 6.0 5.9 5.7 5.8 5.8 5.8 5.7 5.6 5.5 5.5 5.5 5.5 5.5 5.6 5.7 5.7 5.7 5.7 5.7 5.6 5.6 5.7 5.8 6.0 6.2 6.1
6.5 6.6 6.6 6.5 6.3 6.2 6.0 6.0 5.9 5.7 5.7 5.7 5.7 5.7 5.8 5.7 5.6 5.5 5.6 5.7 5.7 5.7 5.7 5.8 5.9 5.8 5.8 5.9 5.8 5.8 5.7 5.8
6.5 6.5 6.6 6.6 6.6 6.4 6.4 6.2 6.1 6.0 5.9 5.7 5.8 5.8 5.7 5.7 5.8 5.8 5.8 5.7 5.7 5.7 5.9 5.9 5.9 6.0 6.0 5.9 5.8 5.6 5.5 5.5
6.8 6.5 6.4 6.5 6.6 6.5 6.4 6.4 6.4 6.3 6.2 6.0 5.9 6.1 6.1 6.2 6.2 6.3 6.2 6.0 6.0 6.0 6.1 6.1 6.1 6.1 6.1 5.9 5.8 6.0 5.7 5.5
6.9 6.7 6.6 6.7 6.7 6.8 6.7 6.3 6.3 6.3 6.3 6.2 6.2 6.2 6.4 6.4 6.4 6.6 6.7 6.5 6.4 6.4 6.3 6.3 6.2 6.2 6.3 6.1 5.6 5.7 5.3 5.4
7.1 6.7 7.0 7.1 6.8 6.6 6.4 6.2 6.0 6.0 6.1 6.0 6.3 6.7 6.6 6.5 6.3 6.4 6.5 6.5 6.3 6.2 6.0 6.1 5.9 6.1 5.7 5.6 5.5 5.4 5.1 5.0
7.4 7.0 7.3 7.0 6.8 6.7 6.3 6.0 5.6 5.9 5.8 5.8 5.8 6.1 6.0 5.9 6.1 6.0 5.9 6.0 6.0 5.7 5.7 5.8 5.7 5.7 5.1 4.7 4.9 5.0 5.1 5.3
7.7 7.4 7.2 6.9 6.6 6.5 6.5 6.1 6.2 6.1 6.0 5.9 6.0 6.0 5.6 5.5 5.4 5.4 5.4 5.3 5.2 5.2 5.3 5.3 5.2 5.0 4.8 4.5 4.7 5.0 4.8 5.1
7.6 7.4 7.1 6.7 6.7 6.4 6.2 6.0 5.8 5.7 5.9 5.9 5.7 5.6 5.6 5.5 5.4 5.4 5.3 5.4 5.2 5.2 5.3 5.3 5.2 5.1 5.0 4.9 5.5 5.5 5.4 5.4
7.4 7.3 7.0 6.7 6.4 6.4 6.2 6.0 5.9 6.0 5.9 5.7 5.5 5.5 5.5 5.4 5.4 5.4 5.4 5.4 5.3 5.4 5.5 5.5 5.6 5.6 5.7 5.7 6.0 6.0 6.1 6.0
6.9 6.9 6.7 6.7 6.4 6.3 6.2 6.3 6.3 6.2 6.0 5.8 5.7 5.5 5.5 5.5 5.5 5.5 5.5 5.4 5.3 5.5 5.8 5.8 5.9 6.1 6.2 6.1 6.1 6.2 6.1 6.0
6.8 6.7 6.6 6.6 6.7 6.5 6.5 6.7 6.6 6.5 6.3 6.0 5.9 5.7 5.5 5.5 5.4 5.4 5.6 5.5 5.4 5.9 6.0 5.9 6.2 6.3 6.3 6.3 6.3 6.2 6.1 6.0
6.9 6.8 6.7 6.6 6.6 6.6 6.7 6.8 6.9 6.8 6.5 6.2 5.8 5.6 5.5 5.4 5.2 5.3 5.2 5.3 5.6 6.0 6.1 6.0 6.2 6.3 6.3 6.3 6.3 6.3 6.3 6.1
7.0 6.9 6.9 6.8 6.9 7.0 7.0 6.9 7.0 6.9 6.7 6.4 6.1 5.7 5.8 5.6 5.2 5.2 5.3 5.6 5.8 5.9 6.2 6.1 6.1 6.2 6.3 6.2 6.2 6.3 6.3 6.1
7.0 7.2 7.1 7.1 7.2 7.1 7.1 7.1 7.2 7.1 6.8 6.6 6.4 6.2 5.8 5.5 5.2 5.2 5.6 5.8 5.8 5.9 6.1 6.4 6.3 6.2 6.2 6.2 6.2 6.2 6.1 6.1
7.2 7.4 7.2 7.2 7.2 7.1 7.2 7.3 7.3 7.0 7.0 6.8 6.5 6.2 5.8 5.5 5.4 5.6 5.7 5.8 5.8 6.0 6.1 6.3 6.3 6.4 6.4 6.3 6.3 6.3 6.2 6.2
7.2 7.6 7.3 7.2 7.2 7.2 7.3 7.3 7.1 7.0 7.1 6.9 6.5 6.1 5.9 5.7 5.7 5.8 5.8 5.8 5.8 6.0 6.2 6.2 6.2 6.3 6.4 6.5 6.4 6.3 6.3 6.2
7.7 7.4 7.2 7.2 7.2 7.4 7.5 7.3 7.2 7.2 7.1 6.9 6.4 6.2 6.0 5.9 5.9 5.9 5.9 5.8 6.0 6.1 6.2 6.3 6.3 6.4 6.4 6.3 6.2 6.2 6.2 6.2
7.4 7.4 7.2 7.3 7.3 7.3 7.3 7.4 7.3 7.3 7.1 6.8 6.3 6.2 6.2 6.1 6.1 6.0 6.0 5.9 5.9 6.1 6.3 6.4 6.4 6.4 6.4 6.3 6.1 6.0 6.1 6.2
Wind_Speed
14 16 18 21 21 19 18 15 14 13 12 11 10 9 9 9 10 11 10 9 8 6 4 3 5 9 14 18 18 14 10 9
13 14 15 16 16 17 16 15 13 11 11 10 10 9 9 9 10 10 9 8 7 6 6 6 6 10 14 17 18 19 8 9
12 13 14 16 17 15 15 13 12 10 10 9 9 9 10 10 10 10 11 10 10 10 9 9 8 11 15 16 16 15 15 10
9 10 12 13 11 13 15 14 13 11 8 6 7 7 8 9 9 10 9 10 7 7 8 11 12 13 15 17 13 11 11 8
9 8 11 10 9 11 10 8 7 4 2 1 10 10 10 9 7 5 4 5 5 6 7 9 11 12 10 12 10 9 10 14
12 10 9 10 10 9 10 8 7 8 8 9 13 7 2 7 5 4 2 6 5 8 6 8 6 9 5 8 12 7 17 16
12 9 8 7 7 8 7 7 9 12 9 15 15 10 5 8 9 9 9 10 8 8 8 8 10 11 13 12 11 11 14 19
11 10 7 8 4 8 8 12 12 8 14 13 14 11 9 8 7 8 11 10 9 10 7 6 6 9 8 12 11 16 23 21
11 9 8 9 7 10 10 11 12 9 13 15 15 15 12 9 7 7 8 9 8 7 7 9 5 7 6 9 13 19 19 20
10 10 10 9 8 9 10 11 11 11 13 14 14 14 14 11 7 6 7 8 9 6 4 4 4 5 4 5 8 17 19 20
12 12 12 11 9 10 10 11 10 12 13 14 12 14 14 13 9 8 12 9 8 4 5 4 4 4 5 5 7 7 13 16
11 8 10 11 8 7 6 6 8 12 11 12 14 13 14 13 11 11 12 5 4 4 5 5 3 3 9 9 8 8 13 14
10 11 7 10 6 5 4 4 3 4 10 13 14 15 14 13 10 10 11 5 4 4 2 6 7 4 6 8 7 8 9 6
9 9 7 6 6 3 3 5 3 5 8 12 13 14 14 13 10 6 8 4 6 5 4 2 4 5 3 2 3 2 6 7
10 9 7 6 7 6 7 6 4 3 3 4 7 14 15 14 14 11 8 6 4 4 5 5 4 6 9 3 2 2 1 2
10 10 10 8 10 10 14 7 7 3 3 4 5 14 13 15 15 14 10 7 6 5 5 4 3 4 4 8 9 3 2 1
11 11 10 9 9 12 9 9 6 4 5 8 6 8 13 13 15 14 10 8 8 6 6 7 5 5 4 2 5 6 5 4
12 13 11 8 10 9 11 13 13 9 7 7 5 4 5 10 13 13 12 10 8 7 9 9 7 7 7 8 6 3 2 4
11 14 12 10 8 9 12 14 14 13 11 8 8 4 3 5 9 8 8 12 13 13 8 8 6 7 7 7 6 6 3 2
14 13 12 9 8 8 11 14 9 9 9 8 6 6 5 8 10 12 14 15 14 13 8 6 7 7 9 7 6 6 5 4
Wind_Direction
134 133 131 133 136 137 136 136 138 138 137 134 127 123 126 133 134 138 143 149 153 165 193 235 287 312 320 325 332 350 350 344
139 138 138 141 143 145 145 146 147 146 143 140 140 145 155 160 157 160 165 171 180 200 233 260 292 312 311 309 318 325 345 336
150 149 151 155 156 160 157 158 158 158 157 157 160 175 182 182 182 181 185 191 202 215 232 253 273 279 283 294 307 307 316 336
164 162 163 160 162 167 170 169 168 172 175 178 201 213 205 205 202 205 211 222 248 279 306 304 305 304 305 320 313 290 285 302
175 170 163 163 165 167 172 177 162 126 148 286 222 235 244 247 244 233 234 275 287 298 297 294 288 281 299 299 296 292 312 332
172 169 161 174 161 172 171 166 155 124 108 106 89 63 147 226 236 191 299 283 284 293 299 310 286 299 301 350 14 8 36 55
170 162 156 175 165 172 161 150 128 126 114 81 83 75 55 75 59 89 68 64 60 49 38 31 31 34 36 36 30 26 61 83
158 154 145 148 128 134 118 115 122 110 82 81 80 85 91 79 75 70 70 66 60 63 52 44 49 49 36 25 22 62 93 94
154 136 127 110 101 105 110 115 105 93 89 82 80 89 95 97 85 77 76 75 77 67 61 66 59 46 51 35 59 76 76 78
131 128 117 105 101 101 100 96 99 94 88 82 79 95 99 89 88 82 85 74 62 60 41 43 44 40 48 42 69 80 77 73
124 128 125 114 100 100 100 99 92 91 89 79 77 87 89 92 84 72 66 55 51 49 45 55 36 29 53 61 79 73 73 76
122 120 121 114 107 100 85 87 82 86 81 79 84 87 87 90 82 72 66 58 47 58 68 40 48 49 94 81 82 83 76 70
133 131 142 132 122 116 94 108 97 76 82 89 83 91 87 91 83 78 69 61 51 52 78 54 34 25 103 87 78 78 73 67
138 142 146 133 132 121 123 134 103 105 100 86 95 93 94 90 93 82 78 71 53 53 64 76 51 20 116 106 129 132 75 69
155 154 156 148 133 126 114 103 81 94 89 85 81 94 96 98 95 96 86 77 73 63 61 72 108 47 51 114 118 156 88 56
151 163 167 173 157 147 154 148 145 140 135 114 97 99 96 102 99 95 89 83 73 66 54 61 84 88 72 56 61 75 119 72
168 166 170 169 164 158 153 140 122 130 124 113 107 93 101 104 104 97 91 83 76 77 65 65 57 75 61 100 62 52 48 75
159 168 177 169 164 159 154 147 144 143 138 128 122 107 96 103 103 103 99 89 83 79 75 70 71 72 69 66 70 83 41 67
163 166 180 181 171 161 152 152 149 151 145 140 136 127 115 118 110 105 97 99 95 88 77 72 74 85 84 83 83 80 80 89
168 178 182 182 176 162 158 153 152 152 146 142 138 134 138 133 115 114 108 105 98 95 89 88 84 83 88 83 78 68 64 60